Time,TemperatureF,DewpointF,PressureIn,WindDirection,WindDirectionDegrees,WindSpeedMPH,WindSpeedGustMPH,Humidity,HourlyPrecipIn,Conditions,Clouds,dailyrainin,SoftwareType,DateUTC
2013-10-14 00:01:00,45.1,43.0,30.40,North,354,0.0,2.0,92,0.00,,,0.01,meteohub,2013-10-14 04:01:00,
2013-10-14 00:02:00,45.1,43.0,30.40,North,354,0.0,2.0,92,0.00,,,0.01,meteohub,2013-10-14 04:02:00,
2013-10-14 00:03:00,45.1,43.0,30.40,North,354,0.0,2.0,92,0.00,,,0.01,meteohub,2013-10-14 04:03:00,
2013-10-14 00:04:00,45.1,43.0,30.40,North,354,0.0,2.0,92,0.00,,,0.01,meteohub,2013-10-14 04:04:00,
2013-10-14 00:09:00,45.0,43.0,30.41,North,354,0.0,0.0,93,0.00,,,0.01,meteohub,2013-10-14 04:09:00,
2013-10-14 00:15:00,45.1,43.5,30.41,North,354,0.0,1.0,94,0.00,,,0.00,meteohub,2013-10-14 04:15:00,
2013-10-14 00:20:00,45.0,43.0,30.41,North,354,0.0,1.0,93,0.00,,,0.00,meteohub,2013-10-14 04:20:00,
2013-10-14 00:25:00,44.4,42.4,30.41,North,354,0.0,1.0,93,0.00,,,0.00,meteohub,2013-10-14 04:25:00,
2013-10-14 00:30:00,44.2,42.3,30.41,North,355,0.0,1.0,93,0.00,,,0.00,meteohub,2013-10-14 04:30:00,
2013-10-14 00:36:00,44.2,42.3,30.40,North,355,0.0,0.0,93,0.00,,,0.00,meteohub,2013-10-14 04:36:00,
2013-10-14 00:41:00,44.1,42.4,30.40,North,355,0.0,0.0,94,0.00,,,0.00,meteohub,2013-10-14 04:41:00,
2013-10-14 00:46:00,44.1,42.4,30.40,North,356,0.0,0.0,94,0.00,,,0.00,meteohub,2013-10-14 04:46:00,
2013-10-14 00:51:00,43.9,42.3,30.41,North,355,0.0,0.0,94,0.00,,,0.00,meteohub,2013-10-14 04:51:00,
2013-10-14 00:56:00,44.1,42.4,30.41,North,355,0.0,1.0,94,0.00,,,0.00,meteohub,2013-10-14 04:56:00,
2013-10-14 01:02:00,44.1,42.8,30.41,NNW,347,0.0,1.0,95,0.00,,,0.00,meteohub,2013-10-14 05:02:00,
2013-10-14 01:07:00,44.1,42.8,30.41,NNW,347,0.0,1.0,95,0.00,,,0.00,meteohub,2013-10-14 05:07:00,
2013-10-14 01:12:00,44.1,42.4,30.41,NNW,347,0.0,1.0,94,0.00,,,0.00,meteohub,2013-10-14 05:12:00,
2013-10-14 01:17:00,43.9,42.3,30.41,NNW,347,1.0,1.0,94,0.00,,,0.00,meteohub,2013-10-14 05:17:00,
2013-10-14 01:22:00,43.5,41.9,30.41,NNW,347,0.0,1.0,94,0.00,,,0.00,meteohub,2013-10-14 05:22:00,
2013-10-14 01:27:00,43.2,41.5,30.41,NNW,347,0.0,1.0,94,0.00,,,0.00,meteohub,2013-10-14 05:27:00,
2013-10-14 01:32:00,43.0,41.4,30.42,NNW,347,0.0,1.0,94,0.00,,,0.00,meteohub,2013-10-14 05:32:00,
2013-10-14 01:37:00,42.6,41.0,30.42,NNW,348,0.0,1.0,94,0.00,,,0.00,meteohub,2013-10-14 05:37:00,
2013-10-14 01:42:00,42.3,40.6,30.42,North,349,0.0,1.0,94,0.00,,,0.00,meteohub,2013-10-14 05:42:00,
2013-10-14 01:47:00,41.9,40.3,30.42,NNW,348,0.0,0.0,94,0.00,,,0.00,meteohub,2013-10-14 05:47:00,
2013-10-14 01:52:00,41.7,40.1,30.42,North,349,0.0,0.0,94,0.00,,,0.00,meteohub,2013-10-14 05:52:00,
2013-10-14 01:57:00,41.5,39.9,30.42,NNW,348,0.0,0.0,94,0.00,,,0.00,meteohub,2013-10-14 05:57:00,
2013-10-14 02:02:00,41.5,39.9,30.42,North,349,0.0,0.0,94,0.00,,,0.00,meteohub,2013-10-14 06:02:00,
2013-10-14 02:08:00,41.5,40.3,30.42,NNE,29,0.0,1.0,95,0.00,,,0.00,meteohub,2013-10-14 06:08:00,
2013-10-14 02:13:00,42.1,41.0,30.42,NNE,29,0.0,1.0,96,0.00,,,0.00,meteohub,2013-10-14 06:13:00,
2013-10-14 02:18:00,42.1,40.8,30.42,NNE,29,0.0,1.0,95,0.00,,,0.00,meteohub,2013-10-14 06:18:00,
2013-10-14 02:23:00,42.1,40.8,30.42,NNE,28,0.0,1.0,95,0.00,,,0.00,meteohub,2013-10-14 06:23:00,
2013-10-14 02:29:00,42.1,41.0,30.42,NNE,29,0.0,1.0,96,0.00,,,0.00,meteohub,2013-10-14 06:29:00,
2013-10-14 02:34:00,42.1,41.0,30.42,NNE,29,0.0,1.0,96,0.00,,,0.00,meteohub,2013-10-14 06:34:00,
2013-10-14 02:39:00,42.3,41.2,30.42,NNE,29,0.0,1.0,96,0.00,,,0.00,meteohub,2013-10-14 06:39:00,
2013-10-14 02:44:00,42.1,41.0,30.42,NNE,29,0.0,1.0,96,0.00,,,0.00,meteohub,2013-10-14 06:44:00,
2013-10-14 02:49:00,41.9,40.6,30.42,NNE,29,0.0,1.0,95,0.00,,,0.00,meteohub,2013-10-14 06:49:00,
2013-10-14 02:54:00,41.9,40.8,30.42,NNE,29,0.0,1.0,96,0.00,,,0.00,meteohub,2013-10-14 06:54:00,
2013-10-14 03:00:00,42.1,41.0,30.42,NNE,29,0.0,1.0,96,0.00,,,0.00,meteohub,2013-10-14 07:00:00,
2013-10-14 03:05:00,42.1,41.0,30.41,NNE,28,0.0,1.0,96,0.00,,,0.00,meteohub,2013-10-14 07:05:00,
2013-10-14 03:10:00,42.1,41.0,30.41,NNE,29,0.0,1.0,96,0.00,,,0.00,meteohub,2013-10-14 07:10:00,
2013-10-14 03:15:00,42.1,41.0,30.42,NNE,29,0.0,0.0,96,0.00,,,0.00,meteohub,2013-10-14 07:15:00,
2013-10-14 03:20:00,42.1,41.0,30.42,NNE,26,0.0,0.0,96,0.00,,,0.00,meteohub,2013-10-14 07:20:00,
2013-10-14 03:26:00,42.3,41.2,30.42,NNE,26,0.0,0.0,96,0.00,,,0.00,meteohub,2013-10-14 07:26:00,
2013-10-14 03:31:00,42.3,41.2,30.42,NW,311,1.0,0.0,96,0.00,,,0.00,meteohub,2013-10-14 07:31:00,
2013-10-14 03:36:00,42.3,41.2,30.42,WSW,250,1.0,1.0,96,0.00,,,0.00,meteohub,2013-10-14 07:36:00,
2013-10-14 03:41:00,42.4,41.4,30.42,West,266,1.0,1.0,96,0.00,,,0.00,meteohub,2013-10-14 07:41:00,
2013-10-14 03:46:00,42.4,41.2,30.42,West,267,0.0,2.0,95,0.00,,,0.00,meteohub,2013-10-14 07:46:00,
2013-10-14 03:51:00,42.4,41.2,30.43,West,267,0.0,2.0,95,0.00,,,0.00,meteohub,2013-10-14 07:51:00,
2013-10-14 03:57:00,42.4,41.2,30.43,West,267,0.0,2.0,95,0.00,,,0.00,meteohub,2013-10-14 07:57:00,
2013-10-14 04:02:00,42.4,41.2,30.43,West,267,0.0,2.0,95,0.00,,,0.00,meteohub,2013-10-14 08:02:00,
2013-10-14 04:07:00,42.3,41.0,30.43,West,267,0.0,1.0,95,0.00,,,0.00,meteohub,2013-10-14 08:07:00,
2013-10-14 04:12:00,42.3,41.0,30.43,West,269,0.0,1.0,95,0.00,,,0.00,meteohub,2013-10-14 08:12:00,
2013-10-14 04:17:00,42.1,40.8,30.43,West,269,0.0,1.0,95,0.00,,,0.00,meteohub,2013-10-14 08:17:00,
2013-10-14 04:22:00,41.5,39.9,30.43,West,269,0.0,1.0,94,0.00,,,0.00,meteohub,2013-10-14 08:22:00,
2013-10-14 04:28:00,41.4,40.1,30.43,West,269,0.0,1.0,95,0.00,,,0.00,meteohub,2013-10-14 08:28:00,
2013-10-14 04:33:00,41.2,39.9,30.43,West,268,0.0,1.0,95,0.00,,,0.00,meteohub,2013-10-14 08:33:00,
2013-10-14 04:38:00,41.2,39.9,30.43,West,269,0.0,0.0,95,0.00,,,0.00,meteohub,2013-10-14 08:38:00,
2013-10-14 04:43:00,40.8,39.6,30.43,West,269,0.0,0.0,95,0.00,,,0.00,meteohub,2013-10-14 08:43:00,
2013-10-14 04:48:00,40.8,39.7,30.43,West,269,0.0,0.0,96,0.00,,,0.00,meteohub,2013-10-14 08:48:00,
2013-10-14 04:54:00,40.8,39.7,30.43,West,269,0.0,0.0,96,0.00,,,0.00,meteohub,2013-10-14 08:54:00,
2013-10-14 04:59:00,40.8,39.7,30.43,West,269,0.0,0.0,96,0.00,,,0.00,meteohub,2013-10-14 08:59:00,
2013-10-14 05:04:00,40.8,39.7,30.43,West,269,0.0,0.0,96,0.00,,,0.00,meteohub,2013-10-14 09:04:00,
2013-10-14 05:09:00,40.8,39.7,30.43,West,268,0.0,0.0,96,0.00,,,0.00,meteohub,2013-10-14 09:09:00,
2013-10-14 05:14:00,40.8,39.7,30.43,West,269,0.0,1.0,96,0.00,,,0.00,meteohub,2013-10-14 09:14:00,
2013-10-14 05:20:00,40.8,39.7,30.43,West,269,0.0,1.0,96,0.00,,,0.00,meteohub,2013-10-14 09:20:00,
2013-10-14 05:25:00,40.8,39.7,30.43,West,269,0.0,1.0,96,0.00,,,0.00,meteohub,2013-10-14 09:25:00,
2013-10-14 05:30:00,40.8,39.7,30.43,West,269,0.0,1.0,96,0.00,,,0.00,meteohub,2013-10-14 09:30:00,
2013-10-14 05:35:00,40.8,39.7,30.43,West,269,0.0,0.0,96,0.00,,,0.00,meteohub,2013-10-14 09:35:00,
2013-10-14 05:40:00,40.6,39.6,30.44,West,269,0.0,0.0,96,0.00,,,0.00,meteohub,2013-10-14 09:40:00,
2013-10-14 05:45:00,40.6,39.9,30.44,West,269,0.0,0.0,97,0.00,,,0.00,meteohub,2013-10-14 09:45:00,
2013-10-14 05:51:00,40.8,40.1,30.44,West,269,0.0,0.0,97,0.00,,,0.00,meteohub,2013-10-14 09:51:00,
2013-10-14 05:56:00,40.8,40.1,30.44,West,269,0.0,1.0,97,0.00,,,0.00,meteohub,2013-10-14 09:56:00,
2013-10-14 06:01:00,41.0,40.3,30.44,WSW,242,1.0,1.0,97,0.00,,,0.00,meteohub,2013-10-14 10:01:00,
2013-10-14 06:06:00,41.2,40.5,30.45,WSW,239,2.0,2.0,97,0.00,,,0.00,meteohub,2013-10-14 10:06:00,
2013-10-14 06:11:00,41.2,40.5,30.45,WSW,245,1.0,2.0,97,0.00,,,0.00,meteohub,2013-10-14 10:11:00,
2013-10-14 06:16:00,41.4,40.6,30.45,WSW,248,1.0,3.0,97,0.00,,,0.00,meteohub,2013-10-14 10:16:00,
2013-10-14 06:22:00,41.5,40.8,30.44,WSW,248,0.0,3.0,97,0.00,,,0.00,meteohub,2013-10-14 10:22:00,
2013-10-14 06:27:00,41.4,40.3,30.45,WSW,248,0.0,2.0,96,0.00,,,0.00,meteohub,2013-10-14 10:27:00,
2013-10-14 06:32:00,41.2,40.1,30.45,WSW,248,0.0,2.0,96,0.00,,,0.00,meteohub,2013-10-14 10:32:00,
2013-10-14 06:37:00,40.6,39.4,30.44,WSW,244,0.0,1.0,95,0.00,,,0.00,meteohub,2013-10-14 10:37:00,
2013-10-14 06:42:00,40.5,39.2,30.45,WSW,245,0.0,1.0,95,0.00,,,0.00,meteohub,2013-10-14 10:42:00,
2013-10-14 06:47:00,40.5,39.4,30.45,WSW,245,1.0,1.0,96,0.00,,,0.00,meteohub,2013-10-14 10:47:00,
2013-10-14 06:52:00,40.5,39.7,30.45,West,264,1.0,1.0,97,0.00,,,0.00,meteohub,2013-10-14 10:52:00,
2013-10-14 06:57:00,40.3,39.2,30.45,SW,236,0.0,2.0,96,0.00,,,0.00,meteohub,2013-10-14 10:57:00,
2013-10-14 07:02:00,40.3,39.2,30.45,SW,231,2.0,2.0,96,0.00,,,0.00,meteohub,2013-10-14 11:02:00,
2013-10-14 07:08:00,40.6,39.9,30.45,SW,228,0.0,2.0,97,0.00,,,0.00,meteohub,2013-10-14 11:08:00,
2013-10-14 07:13:00,40.6,39.9,30.45,ESE,115,0.0,2.0,97,0.00,,,0.00,meteohub,2013-10-14 11:13:00,
2013-10-14 07:18:00,40.6,39.6,30.45,SE,130,0.0,2.0,96,0.00,,,0.00,meteohub,2013-10-14 11:18:00,
2013-10-14 07:23:00,40.8,40.1,30.45,SW,236,0.0,2.0,97,0.00,,,0.00,meteohub,2013-10-14 11:23:00,
2013-10-14 07:28:00,40.8,39.7,30.45,East,79,0.0,1.0,96,0.00,,,0.00,meteohub,2013-10-14 11:28:00,
2013-10-14 07:34:00,40.6,39.6,30.45,East,79,0.0,1.0,96,0.00,,,0.00,meteohub,2013-10-14 11:34:00,
2013-10-14 07:39:00,40.5,39.4,30.45,East,79,0.0,2.0,96,0.00,,,0.00,meteohub,2013-10-14 11:39:00,
2013-10-14 07:44:00,40.5,39.4,30.45,East,88,1.0,2.0,96,0.00,,,0.00,meteohub,2013-10-14 11:44:00,
2013-10-14 07:49:00,41.2,40.5,30.45,ENE,71,3.0,3.0,97,0.00,,,0.00,meteohub,2013-10-14 11:49:00,
2013-10-14 07:54:00,41.7,41.0,30.45,East,84,2.0,4.0,97,0.00,,,0.00,meteohub,2013-10-14 11:54:00,
2013-10-14 07:59:00,42.4,41.7,30.45,East,88,2.0,4.0,97,0.00,,,0.00,meteohub,2013-10-14 11:59:00,
2013-10-14 08:05:00,43.0,41.9,30.44,East,84,4.0,4.0,96,0.00,,,0.00,meteohub,2013-10-14 12:05:00,
2013-10-14 08:10:00,43.3,42.3,30.45,ENE,74,5.0,6.0,96,0.00,,,0.00,meteohub,2013-10-14 12:10:00,
2013-10-14 08:15:00,44.1,42.8,30.45,East,79,3.0,8.0,95,0.00,,,0.00,meteohub,2013-10-14 12:15:00,
2013-10-14 08:20:00,44.6,43.0,30.45,East,81,3.0,8.0,94,0.00,,,0.00,meteohub,2013-10-14 12:20:00,
2013-10-14 08:25:00,45.0,43.0,30.45,East,86,4.0,8.0,93,0.00,,,0.00,meteohub,2013-10-14 12:25:00,
2013-10-14 08:31:00,45.3,43.2,30.45,ENE,61,3.0,8.0,92,0.00,,,0.00,meteohub,2013-10-14 12:31:00,
2013-10-14 08:36:00,45.7,43.5,30.45,East,97,3.0,8.0,92,0.00,,,0.00,meteohub,2013-10-14 12:36:00,
2013-10-14 08:41:00,46.0,43.5,30.45,East,82,3.0,8.0,91,0.00,,,0.00,meteohub,2013-10-14 12:41:00,
2013-10-14 08:46:00,46.2,43.7,30.45,ENE,77,5.0,9.0,91,0.00,,,0.00,meteohub,2013-10-14 12:46:00,
2013-10-14 08:51:00,46.6,43.9,30.45,East,82,3.0,9.0,90,0.00,,,0.00,meteohub,2013-10-14 12:51:00,
2013-10-14 08:57:00,46.9,44.2,30.45,East,87,3.0,7.0,90,0.00,,,0.00,meteohub,2013-10-14 12:57:00,
2013-10-14 09:02:00,47.5,44.4,30.45,ENE,77,3.0,7.0,89,0.00,,,0.00,meteohub,2013-10-14 13:02:00,
2013-10-14 09:07:00,47.7,44.6,30.45,ENE,68,4.0,7.0,89,0.00,,,0.00,meteohub,2013-10-14 13:07:00,
2013-10-14 09:12:00,48.0,44.6,30.45,East,89,4.0,7.0,88,0.00,,,0.00,meteohub,2013-10-14 13:12:00,
2013-10-14 09:17:00,48.4,44.4,30.45,East,79,5.0,7.0,86,0.00,,,0.00,meteohub,2013-10-14 13:17:00,
2013-10-14 09:22:00,48.7,44.8,30.45,East,92,9.0,9.0,86,0.00,,,0.00,meteohub,2013-10-14 13:22:00,
2013-10-14 09:27:00,48.9,44.6,30.45,East,88,6.0,9.0,85,0.00,,,0.00,meteohub,2013-10-14 13:27:00,
2013-10-14 09:32:00,49.1,44.4,30.45,ENE,77,6.0,9.0,84,0.00,,,0.00,meteohub,2013-10-14 13:32:00,
2013-10-14 09:37:00,49.5,44.8,30.45,ENE,74,4.0,13.0,84,0.00,,,0.00,meteohub,2013-10-14 13:37:00,
2013-10-14 09:42:00,49.5,44.8,30.45,East,84,8.0,13.0,84,0.00,,,0.00,meteohub,2013-10-14 13:42:00,
2013-10-14 09:47:00,49.6,44.8,30.45,ESE,121,7.0,13.0,83,0.00,,,0.00,meteohub,2013-10-14 13:47:00,
2013-10-14 09:52:00,49.6,44.4,30.45,East,86,8.0,13.0,82,0.00,,,0.00,meteohub,2013-10-14 13:52:00,
2013-10-14 09:57:00,49.6,44.8,30.45,East,82,7.0,14.0,83,0.00,,,0.00,meteohub,2013-10-14 13:57:00,
2013-10-14 10:02:00,49.8,44.8,30.45,East,87,8.0,14.0,83,0.00,,,0.00,meteohub,2013-10-14 14:02:00,
2013-10-14 10:07:00,49.6,44.4,30.45,East,91,10.0,14.0,82,0.00,,,0.00,meteohub,2013-10-14 14:07:00,
2013-10-14 10:12:00,49.6,44.1,30.45,East,83,5.0,14.0,81,0.00,,,0.00,meteohub,2013-10-14 14:12:00,
2013-10-14 10:18:00,50.0,44.4,30.45,East,79,5.0,14.0,81,0.00,,,0.00,meteohub,2013-10-14 14:18:00,
2013-10-14 10:23:00,50.4,44.1,30.45,East,79,5.0,14.0,79,0.00,,,0.00,meteohub,2013-10-14 14:23:00,
2013-10-14 10:28:00,50.5,43.9,30.45,ESE,102,8.0,14.0,78,0.00,,,0.00,meteohub,2013-10-14 14:28:00,
2013-10-14 10:33:00,51.1,43.7,30.44,East,86,10.0,14.0,76,0.00,,,0.00,meteohub,2013-10-14 14:33:00,
2013-10-14 10:38:00,51.3,43.5,30.45,ENE,65,11.0,14.0,75,0.00,,,0.00,meteohub,2013-10-14 14:38:00,
2013-10-14 10:43:00,51.4,43.5,30.45,East,87,11.0,14.0,74,0.00,,,0.00,meteohub,2013-10-14 14:43:00,
2013-10-14 10:49:00,51.6,43.5,30.44,East,82,6.0,16.0,74,0.00,,,0.00,meteohub,2013-10-14 14:49:00,
2013-10-14 10:54:00,52.0,43.5,30.45,SE,127,7.0,13.0,73,0.00,,,0.00,meteohub,2013-10-14 14:54:00,
2013-10-14 10:59:00,52.2,43.7,30.44,NE,43,8.0,13.0,73,0.00,,,0.00,meteohub,2013-10-14 14:59:00,
2013-10-14 11:04:00,52.5,43.3,30.44,East,94,8.0,13.0,71,0.00,,,0.00,meteohub,2013-10-14 15:04:00,
2013-10-14 11:09:00,52.7,43.5,30.44,ESE,102,8.0,14.0,71,0.00,,,0.00,meteohub,2013-10-14 15:09:00,
2013-10-14 11:14:00,52.9,43.7,30.44,ESE,113,10.0,15.0,71,0.00,,,0.00,meteohub,2013-10-14 15:14:00,
2013-10-14 11:20:00,53.2,44.1,30.44,East,90,5.0,15.0,71,0.00,,,0.00,meteohub,2013-10-14 15:20:00,
2013-10-14 11:25:00,53.8,44.2,30.44,ENE,65,6.0,14.0,70,0.00,,,0.00,meteohub,2013-10-14 15:25:00,
2013-10-14 11:30:00,53.8,43.9,30.44,ENE,74,5.0,14.0,69,0.00,,,0.00,meteohub,2013-10-14 15:30:00,
2013-10-14 11:35:00,53.8,43.5,30.43,ENE,68,4.0,14.0,68,0.00,,,0.00,meteohub,2013-10-14 15:35:00,
2013-10-14 11:40:00,54.3,44.1,30.44,East,79,12.0,14.0,68,0.00,,,0.00,meteohub,2013-10-14 15:40:00,
2013-10-14 11:46:00,54.7,43.9,30.43,ESE,110,7.0,14.0,67,0.00,,,0.00,meteohub,2013-10-14 15:46:00,
2013-10-14 11:51:00,54.7,43.2,30.43,ENE,76,5.0,14.0,65,0.00,,,0.00,meteohub,2013-10-14 15:51:00,
2013-10-14 11:56:00,55.0,42.6,30.43,ENE,65,9.0,14.0,63,0.00,,,0.00,meteohub,2013-10-14 15:56:00,
2013-10-14 12:01:00,55.0,42.3,30.43,ESE,107,8.0,14.0,62,0.00,,,0.00,meteohub,2013-10-14 16:01:00,
2013-10-14 12:06:00,55.0,41.9,30.42,ENE,65,7.0,18.0,61,0.00,,,0.00,meteohub,2013-10-14 16:06:00,
2013-10-14 12:12:00,55.2,41.5,30.42,ENE,63,5.0,18.0,60,0.00,,,0.00,meteohub,2013-10-14 16:12:00,
2013-10-14 12:17:00,55.4,41.7,30.42,East,83,7.0,18.0,60,0.00,,,0.00,meteohub,2013-10-14 16:17:00,
2013-10-14 12:22:00,55.6,42.3,30.42,ENE,76,9.0,18.0,61,0.00,,,0.00,meteohub,2013-10-14 16:22:00,
2013-10-14 12:27:00,55.9,42.6,30.42,ENE,59,3.0,16.0,61,0.00,,,0.00,meteohub,2013-10-14 16:27:00,
2013-10-14 12:32:00,56.5,42.3,30.42,ENE,63,5.0,16.0,59,0.00,,,0.00,meteohub,2013-10-14 16:32:00,
2013-10-14 12:37:00,56.7,42.4,30.41,East,79,5.0,15.0,59,0.00,,,0.00,meteohub,2013-10-14 16:37:00,
2013-10-14 12:42:00,56.7,42.1,30.41,East,85,10.0,15.0,58,0.00,,,0.00,meteohub,2013-10-14 16:42:00,
2013-10-14 12:47:00,56.3,41.7,30.41,ESE,105,5.0,13.0,58,0.00,,,0.00,meteohub,2013-10-14 16:47:00,
2013-10-14 12:52:00,56.3,41.7,30.41,East,92,11.0,13.0,58,0.00,,,0.00,meteohub,2013-10-14 16:52:00,
2013-10-14 12:57:00,56.3,41.2,30.41,SE,146,6.0,15.0,57,0.00,,,0.00,meteohub,2013-10-14 16:57:00,
2013-10-14 13:02:00,56.5,41.0,30.41,SE,139,6.0,15.0,56,0.00,,,0.00,meteohub,2013-10-14 17:02:00,
2013-10-14 13:07:00,57.0,41.9,30.41,East,84,8.0,15.0,57,0.00,,,0.00,meteohub,2013-10-14 17:07:00,
2013-10-14 13:13:00,57.0,41.0,30.41,East,98,4.0,15.0,55,0.00,,,0.00,meteohub,2013-10-14 17:13:00,
2013-10-14 13:18:00,56.8,41.7,30.41,East,81,7.0,12.0,57,0.00,,,0.00,meteohub,2013-10-14 17:18:00,
2013-10-14 13:23:00,57.0,42.4,30.40,ESE,113,9.0,12.0,58,0.00,,,0.00,meteohub,2013-10-14 17:23:00,
2013-10-14 13:28:00,57.4,41.4,30.40,ENE,71,6.0,12.0,55,0.00,,,0.00,meteohub,2013-10-14 17:28:00,
2013-10-14 13:33:00,57.6,41.9,30.40,East,82,8.0,12.0,56,0.00,,,0.00,meteohub,2013-10-14 17:33:00,
2013-10-14 13:39:00,57.7,41.7,30.40,ENE,68,6.0,13.0,55,0.00,,,0.00,meteohub,2013-10-14 17:39:00,
2013-10-14 13:44:00,57.9,41.4,30.40,East,98,11.0,13.0,54,0.00,,,0.00,meteohub,2013-10-14 17:44:00,
2013-10-14 13:49:00,57.6,40.6,30.40,East,92,7.0,12.0,53,0.00,,,0.00,meteohub,2013-10-14 17:49:00,
2013-10-14 13:54:00,57.4,40.8,30.40,NNE,26,3.0,15.0,54,0.00,,,0.00,meteohub,2013-10-14 17:54:00,
2013-10-14 13:59:00,57.7,41.2,30.39,NE,52,6.0,15.0,54,0.00,,,0.00,meteohub,2013-10-14 17:59:00,
2013-10-14 14:04:00,57.9,41.4,30.39,East,83,4.0,15.0,54,0.00,,,0.00,meteohub,2013-10-14 18:04:00,
2013-10-14 14:10:00,58.1,41.0,30.39,ENE,65,6.0,12.0,53,0.00,,,0.00,meteohub,2013-10-14 18:10:00,
2013-10-14 14:15:00,58.5,41.4,30.39,East,92,10.0,12.0,53,0.00,,,0.00,meteohub,2013-10-14 18:15:00,
2013-10-14 14:20:00,58.6,41.5,30.39,SE,134,4.0,12.0,53,0.00,,,0.00,meteohub,2013-10-14 18:20:00,
2013-10-14 14:25:00,58.6,41.5,30.39,East,91,12.0,12.0,53,0.00,,,0.00,meteohub,2013-10-14 18:25:00,
2013-10-14 14:30:00,58.5,40.8,30.39,North,351,3.0,10.0,52,0.00,,,0.00,meteohub,2013-10-14 18:30:00,
2013-10-14 14:36:00,58.6,42.1,30.38,ESE,102,8.0,12.0,54,0.00,,,0.00,meteohub,2013-10-14 18:36:00,
2013-10-14 14:41:00,59.0,41.4,30.38,NNE,33,4.0,12.0,52,0.00,,,0.00,meteohub,2013-10-14 18:41:00,
2013-10-14 14:46:00,59.0,40.8,30.38,SE,142,3.0,12.0,51,0.00,,,0.00,meteohub,2013-10-14 18:46:00,
2013-10-14 14:51:00,59.2,41.0,30.38,East,85,8.0,12.0,51,0.00,,,0.00,meteohub,2013-10-14 18:51:00,
2013-10-14 14:56:00,58.8,41.2,30.37,ESE,110,5.0,11.0,52,0.00,,,0.00,meteohub,2013-10-14 18:56:00,
2013-10-14 15:01:00,59.0,40.8,30.37,SE,132,4.0,11.0,51,0.00,,,0.00,meteohub,2013-10-14 19:01:00,
2013-10-14 15:07:00,59.2,41.0,30.36,ESE,107,4.0,11.0,51,0.00,,,0.00,meteohub,2013-10-14 19:07:00,
2013-10-14 15:12:00,59.4,41.2,30.36,East,94,6.0,11.0,51,0.00,,,0.00,meteohub,2013-10-14 19:12:00,
2013-10-14 15:17:00,59.5,40.8,30.36,East,79,8.0,13.0,50,0.00,,,0.00,meteohub,2013-10-14 19:17:00,
2013-10-14 15:22:00,59.4,40.3,30.36,ESE,110,2.0,13.0,49,0.00,,,0.00,meteohub,2013-10-14 19:22:00,
2013-10-14 15:27:00,59.5,40.8,30.35,East,99,2.0,13.0,50,0.00,,,0.00,meteohub,2013-10-14 19:27:00,
2013-10-14 15:32:00,60.1,40.8,30.35,East,87,4.0,13.0,49,0.00,,,0.00,meteohub,2013-10-14 19:32:00,
2013-10-14 15:37:00,60.1,40.8,30.35,NE,45,2.0,9.0,49,0.00,,,0.00,meteohub,2013-10-14 19:37:00,
2013-10-14 15:42:00,60.1,40.8,30.35,East,99,3.0,9.0,49,0.00,,,0.00,meteohub,2013-10-14 19:42:00,
2013-10-14 15:48:00,60.3,40.5,30.35,ENE,76,4.0,12.0,48,0.00,,,0.00,meteohub,2013-10-14 19:48:00,
2013-10-14 15:53:00,60.3,40.5,30.35,East,85,9.0,12.0,48,0.00,,,0.00,meteohub,2013-10-14 19:53:00,
2013-10-14 15:58:00,60.3,39.9,30.34,ESE,102,4.0,12.0,47,0.00,,,0.00,meteohub,2013-10-14 19:58:00,
2013-10-14 16:03:00,60.3,40.5,30.34,NE,43,1.0,12.0,48,0.00,,,0.00,meteohub,2013-10-14 20:03:00,
2013-10-14 16:09:00,60.4,41.2,30.34,NNW,342,4.0,11.0,49,0.00,,,0.00,meteohub,2013-10-14 20:09:00,
2013-10-14 16:14:00,60.8,40.5,30.34,SSE,166,5.0,7.0,47,0.00,,,0.00,meteohub,2013-10-14 20:14:00,
2013-10-14 16:19:00,61.0,40.1,30.34,ESE,107,7.0,7.0,46,0.00,,,0.00,meteohub,2013-10-14 20:19:00,
2013-10-14 16:24:00,60.8,40.5,30.34,East,83,4.0,7.0,47,0.00,,,0.00,meteohub,2013-10-14 20:24:00,
2013-10-14 16:29:00,60.8,40.5,30.33,East,92,5.0,10.0,47,0.00,,,0.00,meteohub,2013-10-14 20:29:00,
2013-10-14 16:35:00,60.6,39.7,30.33,East,93,5.0,10.0,46,0.00,,,0.00,meteohub,2013-10-14 20:35:00,
2013-10-14 16:40:00,60.6,39.7,30.33,ESE,110,7.0,10.0,46,0.00,,,0.00,meteohub,2013-10-14 20:40:00,
2013-10-14 16:45:00,60.6,39.2,30.33,SE,129,5.0,11.0,45,0.00,,,0.00,meteohub,2013-10-14 20:45:00,
2013-10-14 16:50:00,60.6,40.3,30.33,East,81,4.0,11.0,47,0.00,,,0.00,meteohub,2013-10-14 20:50:00,
2013-10-14 16:55:00,61.0,40.1,30.33,ENE,74,7.0,11.0,46,0.00,,,0.00,meteohub,2013-10-14 20:55:00,
2013-10-14 17:01:00,60.6,39.7,30.33,East,83,4.0,11.0,46,0.00,,,0.00,meteohub,2013-10-14 21:01:00,
2013-10-14 17:02:00,60.4,39.6,30.32,East,79,4.0,11.0,46,0.00,,,0.00,meteohub,2013-10-14 21:02:00,
2013-10-14 17:07:00,60.4,38.5,30.32,East,80,7.0,10.0,44,0.00,,,0.00,meteohub,2013-10-14 21:07:00,
2013-10-14 17:12:00,60.6,39.2,30.32,ENE,60,8.0,10.0,45,0.00,,,0.00,meteohub,2013-10-14 21:12:00,
2013-10-14 17:17:00,60.6,37.9,30.32,ESE,122,4.0,10.0,43,0.00,,,0.00,meteohub,2013-10-14 21:17:00,
2013-10-14 17:22:00,60.4,37.8,30.32,ENE,71,7.0,10.0,43,0.00,,,0.00,meteohub,2013-10-14 21:22:00,
2013-10-14 17:28:00,60.4,37.8,30.31,ESE,115,7.0,9.0,43,0.00,,,0.00,meteohub,2013-10-14 21:28:00,
2013-10-14 17:33:00,60.4,37.8,30.31,East,94,7.0,9.0,43,0.00,,,0.00,meteohub,2013-10-14 21:33:00,
2013-10-14 17:38:00,60.3,37.8,30.31,ENE,75,4.0,13.0,43,0.00,,,0.00,meteohub,2013-10-14 21:38:00,
2013-10-14 17:43:00,60.3,37.0,30.31,East,86,4.0,13.0,42,0.00,,,0.00,meteohub,2013-10-14 21:43:00,
2013-10-14 17:48:00,60.3,37.8,30.31,ENE,76,3.0,10.0,43,0.00,,,0.00,meteohub,2013-10-14 21:48:00,
2013-10-14 17:53:00,60.1,37.6,30.31,East,95,7.0,10.0,43,0.00,,,0.00,meteohub,2013-10-14 21:53:00,
2013-10-14 17:59:00,60.1,36.9,30.30,East,81,7.0,11.0,42,0.00,,,0.00,meteohub,2013-10-14 21:59:00,
2013-10-14 18:04:00,59.9,37.4,30.30,ENE,68,4.0,11.0,43,0.00,,,0.00,meteohub,2013-10-14 22:04:00,
2013-10-14 18:09:00,59.7,37.2,30.30,East,79,6.0,11.0,43,0.00,,,0.00,meteohub,2013-10-14 22:09:00,
2013-10-14 18:14:00,59.7,37.8,30.30,East,82,4.0,11.0,44,0.00,,,0.00,meteohub,2013-10-14 22:14:00,
2013-10-14 18:19:00,59.7,37.8,30.30,ENE,68,7.0,11.0,44,0.00,,,0.00,meteohub,2013-10-14 22:19:00,
2013-10-14 18:25:00,59.7,37.8,30.30,ENE,67,3.0,11.0,44,0.00,,,0.00,meteohub,2013-10-14 22:25:00,
2013-10-14 18:30:00,59.5,37.6,30.30,ENE,78,4.0,8.0,44,0.00,,,0.00,meteohub,2013-10-14 22:30:00,
2013-10-14 18:35:00,59.4,37.4,30.30,ENE,74,3.0,9.0,44,0.00,,,0.00,meteohub,2013-10-14 22:35:00,
2013-10-14 18:40:00,59.2,37.9,30.30,ENE,71,3.0,9.0,45,0.00,,,0.00,meteohub,2013-10-14 22:40:00,
2013-10-14 18:45:00,58.6,37.4,30.30,East,84,3.0,6.0,45,0.00,,,0.00,meteohub,2013-10-14 22:45:00,
2013-10-14 18:51:00,58.3,38.1,30.30,ENE,74,4.0,6.0,47,0.00,,,0.00,meteohub,2013-10-14 22:51:00,
2013-10-14 18:56:00,57.6,37.9,30.30,East,81,4.0,6.0,48,0.00,,,0.00,meteohub,2013-10-14 22:56:00,
2013-10-14 19:01:00,57.0,38.1,30.30,ENE,76,2.0,6.0,49,0.00,,,0.00,meteohub,2013-10-14 23:01:00,
2013-10-14 19:06:00,56.1,38.7,30.29,ENE,68,3.0,4.0,52,0.00,,,0.00,meteohub,2013-10-14 23:06:00,
2013-10-14 19:11:00,55.6,38.3,30.29,ENE,74,3.0,4.0,52,0.00,,,0.00,meteohub,2013-10-14 23:11:00,
2013-10-14 19:17:00,55.2,38.3,30.29,ENE,74,2.0,5.0,53,0.00,,,0.00,meteohub,2013-10-14 23:17:00,
2013-10-14 19:22:00,54.9,38.5,30.29,ENE,71,2.0,5.0,54,0.00,,,0.00,meteohub,2013-10-14 23:22:00,
2013-10-14 19:27:00,54.7,38.3,30.29,ESE,105,1.0,5.0,54,0.00,,,0.00,meteohub,2013-10-14 23:27:00,
2013-10-14 19:32:00,54.3,37.9,30.29,East,79,2.0,5.0,54,0.00,,,0.00,meteohub,2013-10-14 23:32:00,
2013-10-14 19:37:00,54.1,38.3,30.28,ENE,78,1.0,4.0,55,0.00,,,0.00,meteohub,2013-10-14 23:37:00,
2013-10-14 19:42:00,54.0,38.1,30.28,East,85,1.0,4.0,55,0.00,,,0.00,meteohub,2013-10-14 23:42:00,
2013-10-14 19:48:00,53.8,38.5,30.29,East,79,2.0,4.0,56,0.00,,,0.00,meteohub,2013-10-14 23:48:00,
2013-10-14 19:53:00,53.8,38.8,30.28,East,85,2.0,4.0,57,0.00,,,0.00,meteohub,2013-10-14 23:53:00,
2013-10-14 19:58:00,53.4,38.5,30.28,ENE,77,2.0,3.0,57,0.00,,,0.00,meteohub,2013-10-14 23:58:00,
2013-10-14 20:03:00,53.2,38.5,30.28,ESE,108,1.0,3.0,57,0.00,,,0.00,meteohub,2013-10-15 00:03:00,
2013-10-14 20:09:00,53.1,39.2,30.28,East,82,0.0,3.0,59,0.00,,,0.00,meteohub,2013-10-15 00:09:00,
2013-10-14 20:14:00,52.5,38.7,30.28,East,92,1.0,3.0,59,0.00,,,0.00,meteohub,2013-10-15 00:14:00,
2013-10-14 20:19:00,52.5,39.0,30.28,East,86,1.0,3.0,60,0.00,,,0.00,meteohub,2013-10-15 00:19:00,
2013-10-14 20:24:00,52.3,38.8,30.28,East,82,2.0,3.0,60,0.00,,,0.00,meteohub,2013-10-15 00:24:00,
2013-10-14 20:29:00,52.3,39.4,30.28,East,82,2.0,3.0,61,0.00,,,0.00,meteohub,2013-10-15 00:29:00,
2013-10-14 20:34:00,52.2,39.6,30.28,East,84,1.0,4.0,62,0.00,,,0.00,meteohub,2013-10-15 00:34:00,
2013-10-14 20:40:00,52.0,39.4,30.28,East,88,0.0,4.0,62,0.00,,,0.00,meteohub,2013-10-15 00:40:00,
2013-10-14 20:45:00,51.4,39.2,30.27,East,94,1.0,3.0,63,0.00,,,0.00,meteohub,2013-10-15 00:45:00,
2013-10-14 20:50:00,51.3,39.6,30.28,East,98,0.0,3.0,64,0.00,,,0.00,meteohub,2013-10-15 00:50:00,
2013-10-14 20:55:00,50.7,39.4,30.27,East,101,0.0,2.0,65,0.00,,,0.00,meteohub,2013-10-15 00:55:00,
2013-10-14 21:00:00,50.4,39.0,30.28,East,96,0.0,2.0,65,0.00,,,0.00,meteohub,2013-10-15 01:00:00,
2013-10-14 21:06:00,50.2,39.2,30.28,East,101,1.0,1.0,66,0.00,,,0.00,meteohub,2013-10-15 01:06:00,
2013-10-14 21:11:00,49.8,39.4,30.28,East,101,0.0,1.0,67,0.00,,,0.00,meteohub,2013-10-15 01:11:00,
2013-10-14 21:16:00,49.3,39.2,30.28,East,101,0.0,1.0,68,0.00,,,0.00,meteohub,2013-10-15 01:16:00,
2013-10-14 21:21:00,48.9,39.6,30.28,East,85,1.0,1.0,70,0.00,,,0.00,meteohub,2013-10-15 01:21:00,
2013-10-14 21:26:00,48.9,39.6,30.28,ENE,75,4.0,4.0,70,0.00,,,0.00,meteohub,2013-10-15 01:26:00,
2013-10-14 21:32:00,49.3,39.9,30.28,ENE,78,2.0,2.0,70,0.00,,,0.00,meteohub,2013-10-15 01:32:00,
2013-10-14 21:37:00,49.6,39.6,30.28,East,88,3.0,5.0,68,0.00,,,0.00,meteohub,2013-10-15 01:37:00,
2013-10-14 21:42:00,50.2,39.6,30.28,ENE,68,2.0,5.0,67,0.00,,,0.00,meteohub,2013-10-15 01:42:00,
2013-10-14 21:47:00,50.4,39.7,30.29,ENE,76,3.0,4.0,67,0.00,,,0.00,meteohub,2013-10-15 01:47:00,
2013-10-14 21:52:00,50.4,39.7,30.29,ENE,70,3.0,4.0,67,0.00,,,0.00,meteohub,2013-10-15 01:52:00,
2013-10-14 21:57:00,50.4,39.7,30.29,ENE,74,2.0,4.0,67,0.00,,,0.00,meteohub,2013-10-15 01:57:00,
2013-10-14 22:02:00,50.4,40.3,30.29,ENE,77,3.0,4.0,68,0.00,,,0.00,meteohub,2013-10-15 02:02:00,
2013-10-14 22:08:00,50.4,40.3,30.29,ENE,70,4.0,8.0,68,0.00,,,0.00,meteohub,2013-10-15 02:08:00,
2013-10-14 22:13:00,50.4,40.6,30.29,East,79,3.0,8.0,69,0.00,,,0.00,meteohub,2013-10-15 02:13:00,
2013-10-14 22:18:00,50.4,40.6,30.29,ENE,70,3.0,8.0,69,0.00,,,0.00,meteohub,2013-10-15 02:18:00,
2013-10-14 22:23:00,50.4,40.6,30.29,ENE,68,4.0,8.0,69,0.00,,,0.00,meteohub,2013-10-15 02:23:00,
2013-10-14 22:28:00,50.4,41.0,30.29,East,82,4.0,8.0,70,0.00,,,0.00,meteohub,2013-10-15 02:28:00,
2013-10-14 22:33:00,50.2,41.2,30.29,East,79,5.0,8.0,71,0.00,,,0.00,meteohub,2013-10-15 02:33:00,
2013-10-14 22:39:00,50.2,41.5,30.28,East,86,8.0,8.0,72,0.00,,,0.00,meteohub,2013-10-15 02:39:00,
2013-10-14 22:44:00,50.2,41.9,30.28,East,79,4.0,8.0,73,0.00,,,0.00,meteohub,2013-10-15 02:44:00,
2013-10-14 22:49:00,50.0,42.1,30.28,East,89,4.0,10.0,74,0.00,,,0.00,meteohub,2013-10-15 02:49:00,
2013-10-14 22:54:00,49.8,42.3,30.28,East,87,6.0,10.0,75,0.00,,,0.00,meteohub,2013-10-15 02:54:00,
2013-10-14 22:59:00,49.6,42.1,30.28,SE,127,3.0,10.0,75,0.00,,,0.00,meteohub,2013-10-15 02:59:00,
2013-10-14 23:05:00,49.6,42.4,30.28,ENE,74,5.0,10.0,76,0.00,,,0.00,meteohub,2013-10-15 03:05:00,
2013-10-14 23:10:00,49.5,42.6,30.28,East,79,9.0,9.0,77,0.00,,,0.00,meteohub,2013-10-15 03:10:00,
2013-10-14 23:15:00,49.5,42.6,30.27,East,97,8.0,11.0,77,0.00,,,0.00,meteohub,2013-10-15 03:15:00,
2013-10-14 23:20:00,49.3,42.8,30.27,East,85,7.0,11.0,78,0.00,,,0.00,meteohub,2013-10-15 03:20:00,
2013-10-14 23:26:00,49.3,42.8,30.27,East,100,7.0,10.0,78,0.00,,,0.00,meteohub,2013-10-15 03:26:00,
2013-10-14 23:31:00,48.9,42.6,30.27,East,84,6.0,10.0,79,0.00,,,0.00,meteohub,2013-10-15 03:31:00,
2013-10-14 23:36:00,48.7,42.8,30.27,East,89,4.0,10.0,80,0.00,,,0.00,meteohub,2013-10-15 03:36:00,
2013-10-14 23:41:00,48.7,42.8,30.27,East,93,6.0,10.0,80,0.00,,,0.00,meteohub,2013-10-15 03:41:00,
2013-10-14 23:47:00,48.6,43.0,30.26,East,95,5.0,10.0,81,0.00,,,0.00,meteohub,2013-10-15 03:47:00,
2013-10-14 23:52:00,48.6,43.0,30.27,East,95,6.0,10.0,81,0.00,,,0.00,meteohub,2013-10-15 03:52:00,
2013-10-14 23:57:00,48.6,43.3,30.26,East,82,4.0,10.0,82,0.00,,,0.00,meteohub,2013-10-15 03:57:00,